Starlink 3821

operational
NORAD ID: 52357 Int'l Des: 2022-045 Owner: SPXS Country: US Constellation: starlink
LEOCIRCULAR

Über Starlink 3821

Beschreibung wird geladen...

Live-Position

3D-Globus wird geladen...

Nächste Überflüge

Höhenverlauf

Altitude vs Time

uPlot chart will show altitude changes over time

Zweizeiliger Elementsatz

1 52357U 22045AC 25260.00009681 -.00000531 00000-0 -15262-4 0 9995
2 52357 53.2136 258.8460 0001479 83.1173 276.9987 15.08838780189566
Epoch: 17. Sept. 2025 • Age: 30 hours

Aktueller Status

Höhe 558.8 km
Geschwindigkeit 7.58 km/s
Subsatellitenpunkt -51.92°S, 61.1°E
Startdatum 29. Apr. 2022
Alter 3.3 years
Typ internet

Technische Details

Klassifizierung Payload
Masse 297.00 kg
Trockenmasse 275.00 kg
Gesamtmasse 297.00 kg
Länge 0.20 m
Durchmesser 2.80 m
Spannweite 9.00 m
Form Box + pan
Hersteller SPXS
Bus-Typ Starlink
Phasenstatus In Orbit
Besitzer/Staat SPXS/US

Große Konstellationen

Loading constellations...